Location: Cabobito
(9.9667°N, 67.8000°W)
Time: 22:56:04
(UTC+00:00)

Delta 7925 Rocket - Pass Details

Date: 18 April 2024
Orbit: 645 x 1644 km, 26.3° (Epoch: 24 May)

Event Time Altitude Azimuth Distance (km) Brightness Sun altitude
Rises 23:27:04 0° 295° (WNW) 2,983 8.4 -11.7°
Reaches altitude 10° 23:29:17 10° 295° (WNW) 2,124 7.2 -12.2°
Maximum altitude 23:34:12 88° 210° (SSW) 770 3.5 -13.4°
Enters shadow 23:38:23 20° 117° (ESE) 1,899 4.9 -14.4°
